Find OneWeb SL0353

NORAD ID: 49282 Int'l Des: 2021-090 Owner: ONEWEBN Country: UK Constellation: oneweb operational
LEOCIRCULARPOLARONEWEB_TYPE

現在のビュー

3D地球を読み込み中...

About OneWeb SL0353

OneWeb SL0353 (NORAD 49282) is a oneweb constellation satellite launched Oct 14, 2021 by ONEWEBN of UK. It operates in LEO, CIRCULAR, POLAR, ONEWEB_TYPE orbit with a mass of 148.00 kg.

OneWeb SL0353について

説明を読み込み中...

次回通過

Passes for default location (London). Set your location on the main map for personalized predictions.

高度履歴

Loading altitude history...

軌道要素

1 49282U 21090D 26170.87483185 .00000039 00000-0 69469-4 0 9997
2 49282 87.8969 289.1688 0001655 101.5886 258.5429 13.14502814227939
Epoch: Jun 19, 2026 • Age: 15 hours

現在のステータス

高度 1213.7 km
速度 7.25 km/s
衛星直下点 53.15°N, 155.06°W
打ち上げ日 Oct 14, 2021
運用期間 4.6 years
タイプ internet

技術仕様

分類 Payload
質量 148.00 kg
乾燥質量 140.00 kg
総質量 148.00 kg
長さ 1.30 m
直径 1.00 m
スパン 5.00 m
形状 Trapezoid+2 pan
製造者 ONEWUS
バスタイプ ARROW
フェーズステータス In Orbit
所有者/国 ONEWEBN/UK

Most Searched